Regional Weather Roundup
Issued by NWS

Current Version | Previous Version | Text Only | Print | Product List | Glossary On
Versions: 1 2 3 4 5 6 7 8 9 10 11 12 13 14 15 16 17 18 19 20 21 22 23 24 25 26 27
000
ASCA42 TJSJ 280310
RWRPR
PUERTO RICO/U.S. VIRGIN ISLANDS HOURLY WEATHER ROUNDUP
NATIONAL WEATHER SERVICE SAN JUAN PR
1100 PM AST MON JUN 27 2016

PRZ001-004-280400-
PUERTO RICO

CITY           SKY/WX    TMP DP  RH WIND       PRES   REMARKS
SAN JUAN LMM   PTCLDY    82  75  78 E6        30.05R
PONCE          CLEAR     77  70  78 NE6       30.03
CEIBA          PTCLDY    81  73  78 E7        30.08R
$$

PRZ006-007-280400-
U.S. VIRGIN ISLANDS

CITY           SKY/WX    TMP DP  RH WIND       PRES   REMARKS
CHARLOTTE AMA  CLEAR     82  75  78 E8        30.05R
CHRISTIANSTED  PTCLDY    81  73  78 NE5       30.06R
$$

HOURLY WEATHER ROUNDUP FOR THE NEWS MEDIA

CITY           SKY/WX    TMP DP  RH WIND       PRES   REMARKS
ORLANDO        MOCLDY    82  74  76 E5        30.03R
NEW YORK       LGT RAIN  72  69  90 S16       30.02F
NEWARK         HVY RAIN  72  69  90 S8        30.01S FOG
CHICAGO        PTCLDY    72  57  59 E5        30.07R
HARTFORD       CLOUDY    69  63  81 SW8       30.05F
BOSTON         MOCLDY    71  62  73 S12       30.03R
DALLAS         CLOUDY    83  74  74 SW5       30.06R
PHILADELPHIA   LGT RAIN  72  69  90 E3        30.00  FOG
LOS ANGELES    MOCLDY    70  65  84 W10       29.90S
WASHINGTON DC  MOCLDY    77  70  79 SE3       29.96F



USA.gov is the U.S. government's official web portal to all federal, state and local government web resources and services.